When you browse on this site, cookies collect data to enhance your experience and personalize the content and advertising you see.
Visit our Privacy Policy to learn more. By continuing to use the site, you agree to this use of cookies and data.
  • In Hungary
  • List of Countries
  • For 7 days
  • Water Temperature
  • Satellite Maps
  • Weather Map
  • News
  • Weather Widgets
  • user-avatar
    Login

    Hourly Weather Teklevka

    Today, 16 January, Wednesday

    Time Temperature Precipitation Wind Pressure Humidity
    00:00 -12°C° 0 mm 3 mps 734 mmHg 95%
    01:00 -12°C° 0 mm 2 mps 734 mmHg 96%
    02:00 -10°C° 0 mm 2 mps 734 mmHg 96%
    03:00 -9°C° 0 mm 2 mps 734 mmHg 96%
    04:00 -8°C° 0 mm 1 mps 734 mmHg 97%
    05:00 -7°C° 0 mm 1 mps 735 mmHg 97%
    06:00 -7°C° 0 mm 1 mps 735 mmHg 97%
    07:00 -6°C° 0 mm 1 mps 735 mmHg 97%
    08:00 -6°C° 0 mm 1 mps 736 mmHg 97%
    09:00 -4°C° 0 mm 1 mps 737 mmHg 96%
    10:00 -6°C° 0 mm 2 mps 737 mmHg 95%
    11:00 -5°C° 0 mm 2 mps 738 mmHg 95%
    12:00 -5°C° 0 mm 2 mps 738 mmHg 94%
    13:00 -6°C° 0 mm 3 mps 739 mmHg 93%
    14:00 -6°C° 0 mm 3 mps 739 mmHg 91%
    15:00 -7°C° 0 mm 3 mps 740 mmHg 93%
    16:00 -8°C° 0 mm 3 mps 740 mmHg 94%
    17:00 -10°C° 0 mm 3 mps 741 mmHg 96%
    18:00 -9°C° 0 mm 3 mps 741 mmHg 96%
    19:00 -9°C° 0 mm 3 mps 742 mmHg 95%
    20:00 -8°C° 0 mm 3 mps 742 mmHg 95%
    21:00 -10°C° 0 mm 3 mps 743 mmHg 95%
    22:00 -10°C° 0 mm 2 mps 743 mmHg 95%
    23:00 -12°C° 0 mm 2 mps 744 mmHg 96%

    Tomorrow, 17 January, Thursday

    Time Temperature Precipitation Wind Pressure Humidity
    00:00 -12°C° 0 mm 2 mps 744 mmHg 96%
    01:00 -14°C° 0 mm 3 mps 744 mmHg 96%
    02:00 -14°C° 0 mm 3 mps 744 mmHg 96%
    03:00 -14°C° 0 mm 4 mps 744 mmHg 94%
    04:00 -11°C° 0 mm 4 mps 743 mmHg 93%
    05:00 -11°C° 0 mm 5 mps 743 mmHg 92%
    06:00 -10°C° 0.1 mm 5 mps 743 mmHg 92%
    07:00 -9°C° 0.1 mm 6 mps 743 mmHg 92%
    08:00 -8°C° 0.1 mm 6 mps 742 mmHg 92%
    09:00 -6°C° 0 mm 6 mps 742 mmHg 92%
    10:00 -6°C° 0 mm 7 mps 742 mmHg 93%
    11:00 -4°C° 0 mm 7 mps 742 mmHg 93%
    12:00 -3°C° 0.1 mm 7 mps 741 mmHg 93%
    13:00 -2°C° 0.1 mm 7 mps 741 mmHg 94%
    14:00 -2°C° 0.1 mm 8 mps 740 mmHg 95%
    15:00 -2°C° 0 mm 8 mps 740 mmHg 92%
    16:00 -2°C° 0 mm 7 mps 740 mmHg 89%
    17:00 -2°C° 0 mm 7 mps 739 mmHg 86%
    18:00 -2°C° 0 mm 7 mps 739 mmHg 87%
    19:00 -2°C° 0 mm 7 mps 740 mmHg 87%
    20:00 -2°C° 0 mm 6 mps 740 mmHg 87%
    21:00 -2°C° 0 mm 6 mps 740 mmHg 88%
    22:00 -2°C° 0 mm 6 mps 740 mmHg 90%
    23:00 -1°C° 0 mm 5 mps 740 mmHg 91%

    Day after tomorrow, 18 January, Friday

    Time Temperature Precipitation Wind Pressure Humidity
    00:00 -1°C° 0 mm 5 mps 740 mmHg 91%
    01:00 -2°C° 0 mm 5 mps 740 mmHg 91%
    02:00 -2°C° 0 mm 5 mps 741 mmHg 91%
    03:00 -2°C° 0 mm 5 mps 740 mmHg 92%
    04:00 -2°C° 0 mm 5 mps 740 mmHg 92%
    05:00 -2°C° 0 mm 5 mps 740 mmHg 93%
    06:00 -2°C° 0 mm 5 mps 740 mmHg 93%
    07:00 -3°C° 0 mm 6 mps 740 mmHg 93%
    08:00 -3°C° 0 mm 6 mps 739 mmHg 93%
    09:00 -3°C° 0.1 mm 6 mps 740 mmHg 94%
    10:00 -2°C° 0.1 mm 6 mps 740 mmHg 95%
    11:00 -2°C° 0.1 mm 6 mps 740 mmHg 97%
    12:00 -2°C° 0.1 mm 6 mps 740 mmHg 94%
    13:00 -2°C° 0.1 mm 6 mps 740 mmHg 92%
    14:00 -2°C° 0.1 mm 6 mps 740 mmHg 89%
    15:00 -2°C° 0 mm 5 mps 740 mmHg 88%
    16:00 -4°C° 0 mm 5 mps 740 mmHg 86%
    17:00 -5°C° 0 mm 5 mps 740 mmHg 84%
    18:00 -5°C° 0.1 mm 6 mps 741 mmHg 85%
    19:00 -4°C° 0.1 mm 7 mps 741 mmHg 85%
    20:00 -4°C° 0.1 mm 9 mps 742 mmHg 86%
    21:00 -6°C° 0 mm 8 mps 743 mmHg 85%
    22:00 -8°C° 0 mm 7 mps 744 mmHg 84%
    23:00 -10°C° 0 mm 6 mps 745 mmHg 83%

    19 January, Saturday

    Time Temperature Precipitation Wind Pressure Humidity
    00:00 -10°C° 0 mm 5 mps 746 mmHg 86%
    01:00 -10°C° 0 mm 5 mps 747 mmHg 88%
    02:00 -11°C° 0 mm 5 mps 748 mmHg 91%
    03:00 -11°C° 0 mm 5 mps 749 mmHg 91%
    04:00 -10°C° 0 mm 4 mps 749 mmHg 92%
    05:00 -10°C° 0 mm 4 mps 749 mmHg 92%
    06:00 -10°C° 0 mm 4 mps 750 mmHg 92%
    07:00 -10°C° 0 mm 4 mps 750 mmHg 93%
    08:00 -10°C° 0 mm 4 mps 751 mmHg 93%
    09:00 -11°C° 0 mm 5 mps 751 mmHg 91%
    10:00 -10°C° 0 mm 5 mps 751 mmHg 90%
    11:00 -8°C° 0 mm 5 mps 752 mmHg 88%
    12:00 -7°C° 0 mm 5 mps 752 mmHg 88%
    13:00 -7°C° 0 mm 4 mps 752 mmHg 87%
    14:00 -5°C° 0 mm 4 mps 752 mmHg 86%
    15:00 -7°C° 0 mm 4 mps 752 mmHg 88%
    16:00 -8°C° 0 mm 4 mps 752 mmHg 89%
    17:00 -9°C° 0 mm 4 mps 752 mmHg 90%
    18:00 -9°C° 0 mm 4 mps 752 mmHg 90%
    19:00 -9°C° 0 mm 4 mps 752 mmHg 90%
    20:00 -9°C° 0 mm 4 mps 752 mmHg 90%
    21:00 -9°C° 0 mm 4 mps 752 mmHg 91%
    22:00 -9°C° 0 mm 4 mps 752 mmHg 92%
    23:00 -9°C° 0 mm 3 mps 752 mmHg 93%

    20 January, Sunday

    Time Temperature Precipitation Wind Pressure Humidity
    00:00 -10°C° 0 mm 3 mps 752 mmHg 94%
    01:00 -10°C° 0 mm 3 mps 752 mmHg 95%
    02:00 -12°C° 0 mm 3 mps 752 mmHg 96%
    03:00 -13°C° 0 mm 3 mps 751 mmHg 96%
    04:00 -13°C° 0 mm 3 mps 751 mmHg 97%
    05:00 -13°C° 0 mm 3 mps 751 mmHg 97%
    06:00 -13°C° 0 mm 3 mps 751 mmHg 97%
    07:00 -12°C° 0 mm 3 mps 751 mmHg 97%
    08:00 -12°C° 0 mm 3 mps 751 mmHg 97%
    09:00 -10°C° 0 mm 3 mps 751 mmHg 97%
    10:00 -9°C° 0 mm 3 mps 751 mmHg 97%
    11:00 -8°C° 0 mm 3 mps 751 mmHg 98%
    12:00 -8°C° 0 mm 3 mps 750 mmHg 96%
    13:00 -7°C° 0 mm 3 mps 750 mmHg 95%
    14:00 -6°C° 0 mm 2 mps 750 mmHg 94%
    15:00 -6°C° 0 mm 2 mps 750 mmHg 94%
    16:00 -6°C° 0 mm 2 mps 750 mmHg 94%
    17:00 -4°C° 0 mm 1 mps 749 mmHg 94%
    18:00 -4°C° 0 mm 1 mps 749 mmHg 94%
    19:00 -4°C° 0 mm 1 mps 749 mmHg 94%
    20:00 -4°C° 0 mm 1 mps 749 mmHg 95%
    21:00 -6°C° 0.1 mm 1 mps 749 mmHg 95%
    22:00 -6°C° 0.1 mm 1 mps 749 mmHg 96%
    23:00 -6°C° 0.1 mm 1 mps 749 mmHg 96%

    21 January, Monday

    Time Temperature Precipitation Wind Pressure Humidity
    00:00 -6°C° 0.2 mm 1 mps 749 mmHg 97%
    01:00 -6°C° 0.2 mm 1 mps 749 mmHg 97%
    02:00 -6°C° 0.2 mm 1 mps 749 mmHg 97%
    03:00 -6°C° 0.2 mm 1 mps 749 mmHg 97%
    04:00 -6°C° 0.2 mm 1 mps 749 mmHg 97%
    05:00 -6°C° 0.2 mm 1 mps 749 mmHg 97%
    06:00 -7°C° 0.1 mm 2 mps 749 mmHg 97%
    07:00 -7°C° 0.1 mm 2 mps 749 mmHg 96%
    08:00 -8°C° 0.1 mm 3 mps 749 mmHg 96%
    09:00 -8°C° 0.1 mm 3 mps 750 mmHg 95%
    10:00 -9°C° 0.1 mm 4 mps 750 mmHg 93%
    11:00 -9°C° 0.1 mm 4 mps 751 mmHg 92%
    12:00 -8°C° 0.1 mm 4 mps 751 mmHg 91%
    13:00 -8°C° 0.1 mm 4 mps 752 mmHg 89%
    14:00 -8°C° 0.1 mm 4 mps 752 mmHg 88%
    15:00 -10°C° 0.1 mm 5 mps 753 mmHg 89%
    16:00 -11°C° 0.1 mm 5 mps 753 mmHg 90%
    17:00 -11°C° 0.1 mm 5 mps 754 mmHg 90%
    18:00 -12°C° 0 mm 5 mps 754 mmHg 91%
    19:00 -14°C° 0 mm 4 mps 755 mmHg 91%
    20:00 -15°C° 0 mm 4 mps 755 mmHg 91%
    21:00 -15°C° 0 mm 3 mps 755 mmHg 92%
    22:00 -16°C° 0 mm 3 mps 756 mmHg 93%
    23:00 -17°C° 0 mm 3 mps 756 mmHg 93%
    Show more